DW4008 Weather Reports


time (UTC)temp
C
wind
direction
speed
KPH
gust
KPH
rain 1hr
cm
rain 24hr
cm
rain mn
cm
humidity
%
barometer
mb
20260901080327 15 31 0.0 0.0 0.00 0.00 0.00 73 1025.0
20260901074824 15 26 0.0 0.0 0.00 0.00 0.00 73 1024.8
20260901073319 15 19 1.6 0.0 0.00 0.00 0.00 72 1025.0
20260901071836 15 36 0.0 0.0 0.00 0.00 0.00 72 1024.8
20260901070325 15 20 0.0 0.0 0.00 0.00 0.00 71 1024.7
20260901064819 15 30 1.6 0.0 0.00 0.00 0.00 70 1024.8
20260901063315 15 360 3.2 0.0 0.00 0.00 0.00 70 1024.8
20260901061826 15 5 0.0 0.0 0.00 0.00 0.00 72 1024.7
20260901060321 15 24 0.0 0.0 0.00 0.00 0.00 75 1024.6
20260901054811 15 28 0.0 0.0 0.00 0.00 0.05 78 1024.5
20260901053332 15 12 0.0 0.0 0.00 0.00 0.05 78 1024.8
20260901051821 15 347 1.6 0.0 0.00 0.00 0.05 78 1024.6
20260901050359 15 51 3.2 0.0 0.00 0.00 0.05 77 1024.2
20260901044834 15 12 0.0 0.0 0.00 0.00 0.05 77 1025.5
20260901043326 15 17 0.0 0.0 0.00 0.00 0.05 78 1025.8
20260901041840 15 19 0.0 0.0 0.00 0.00 0.05 77 1025.8
20260901040316 15 22 4.8 0.0 0.00 0.00 0.05 75 1025.7
20260901034834 15 30 3.2 0.0 0.00 0.00 0.05 75 1026.4
20260901033332 15 33 3.2 0.0 0.00 0.00 0.05 75 1026.3
20260901031832 15 34 0.0 0.0 0.00 0.00 0.05 76 1026.3
20260901030318 15 337 4.8 0.0 0.00 0.00 0.05 75 1026.0
20260901024818 16 30 6.4 0.0 0.00 0.00 0.05 72 1025.7
20260901023341 16 38 1.6 0.0 0.00 0.00 0.05 72 1026.0
20260901021832 16 305 0.0 0.0 0.00 0.00 0.05 73 1026.3
20260901020342 16 5 0.0 0.0 0.00 0.00 0.05 76 1026.2
20260901014814 16 38 6.4 0.0 0.00 0.00 0.05 73 1025.7
20260901013339 17 17 3.2 0.0 0.00 0.00 0.05 68 1026.1
20260901011844 17 22 0.0 0.0 0.00 0.00 0.05 66 1025.9
20260901010324 18 37 0.0 0.0 0.00 0.00 0.05 64 1026.0
20260901004828 17 211 0.0 0.0 0.00 0.00 0.05 66 1025.9
20260901003328 17 201 0.0 0.0 0.00 0.00 0.05 66 1025.8
20260901001822 18 46 3.2 0.0 0.00 0.00 0.05 57 1025.5
20260901000331 19 350 9.7 0.0 0.00 0.00 0.00 56 1024.5
20260831234827 23 153 0.0 0.0 0.00 0.00 0.00 40 1024.5
20260831233326 23 194 1.6 0.0 0.00 0.00 0.00 37 1024.1
20260831231813 23 153 3.2 0.0 0.00 0.00 0.00 36 1023.8
20260831230311 23 155 1.6 0.0 0.00 0.00 0.00 36 1023.8
20260831224831 23 159 1.6 0.0 0.00 0.00 0.00 37 1023.8
20260831223322 23 144 1.6 0.0 0.00 0.00 0.00 39 1024.6
20260831221815 23 116 1.6 0.0 0.00 0.00 0.00 42 1023.9
20260831220326 23 100 4.8 0.0 0.00 0.00 0.00 42 1024.0
20260831214852 23 130 1.6 0.0 0.00 0.00 0.00 42 1024.0
20260831213321 22 128 0.0 0.0 0.00 0.00 0.00 48 1024.4
20260831211819 20 62 0.0 0.0 0.00 0.00 0.00 49 1024.9
20260831210323 21 269 8.0 0.0 0.00 0.00 0.00 49 1025.4
20260831204820 25 126 1.6 0.0 0.00 0.00 0.00 34 1025.0
20260831203316 25 60 1.6 0.0 0.00 0.00 0.00 29 1025.0
20260831201822 26 331 3.2 0.0 0.00 0.00 0.00 28 1025.3
20260831200320 27 17 1.6 0.0 0.00 0.00 0.00 25 1025.5
20260831194815 27 17 4.8 0.0 0.00 0.00 0.00 25 1025.0
20260831193327 27 284 4.8 0.0 0.00 0.00 0.00 26 1025.2
20260831191833 27 351 4.8 0.0 0.00 0.00 0.00 25 1025.1
20260831190351 26 22 6.4 0.0 0.00 0.00 0.00 24 1025.3
20260831184836 26 360 8.0 0.0 0.00 0.00 0.00 25 1025.4
20260831183324 26 22 6.4 0.0 0.00 0.00 0.00 25 1025.7
20260831181841 25 13 3.2 0.0 0.00 0.00 0.00 29 1025.9
20260831180327 25 221 0.0 0.0 0.00 0.00 0.00 33 1026.0
20260831174848 24 312 3.2 0.0 0.00 0.00 0.00 33 1026.3
20260831173322 25 201 0.0 0.0 0.00 0.00 0.00 33 1026.3
20260831171843 24 155 0.0 0.0 0.00 0.00 0.00 34 1026.4
20260831170327 23 154 0.0 0.0 0.00 0.00 0.00 36 1026.4
20260831164902 22 152 0.0 0.0 0.00 0.00 0.00 38 1026.4
20260831163323 21 145 1.6 0.0 0.00 0.00 0.00 41 1026.4
20260831161818 20 81 0.0 0.0 0.00 0.00 0.00 43 1026.3
20260831160318 19 49 0.0 0.0 0.00 0.00 0.00 46 1026.3
20260831154830 18 49 0.0 0.0 0.00 0.00 0.00 47 1026.3
20260831153327 18 46 0.0 0.0 0.00 0.00 0.00 45 1026.3
20260831151831 17 46 0.0 0.0 0.00 0.00 0.00 50 1026.1
20260831150326 16 46 0.0 0.0 0.00 0.00 0.00 52 1026.1
20260831144820 16 46 0.0 0.0 0.00 0.00 0.00 52 1026.1
20260831143325 15 46 0.0 0.0 0.00 0.00 0.00 55 1026.1
20260831141842 15 46 0.0 0.0 0.00 0.00 0.00 55 1025.8
20260831140351 15 42 0.0 0.0 0.00 0.00 0.00 53 1025.7
20260831134831 16 18 0.0 0.0 0.00 0.00 0.00 50 1025.5
20260831133326 16 26 0.0 0.0 0.00 0.00 0.00 49 1025.4
20260831131820 16 29 1.6 0.0 0.00 0.00 0.00 48 1025.1
20260831130329 16 51 0.0 0.0 0.00 0.00 0.00 46 1025.2
20260831124852 16 53 0.0 0.0 0.00 0.00 0.00 46 1025.0
20260831123316 16 53 0.0 0.0 0.00 0.00 0.00 45 1025.0
20260831121826 16 31 0.0 0.0 0.00 0.00 0.00 44 1024.7
20260831120336 17 257 0.0 0.0 0.00 0.00 0.00 43 1024.6
20260831114813 16 276 0.0 0.0 0.00 0.00 0.00 46 1024.3
20260831113312 16 263 1.6 0.0 0.00 0.00 0.00 47 1024.1
20260831111820 15 19 0.0 0.0 0.00 0.00 0.00 50 1024.1
20260831110317 15 44 0.0 0.0 0.00 0.00 0.00 50 1024.1
20260831104813 15 51 0.0 0.0 0.00 0.00 0.00 51 1024.1
20260831103320 16 43 0.0 0.0 0.00 0.00 0.00 49 1024.0
20260831101824 15 50 0.0 0.0 0.00 0.00 0.00 49 1024.1
20260831100342 16 46 0.0 0.0 0.00 0.00 0.00 48 1023.9
20260831094838 16 42 0.0 0.0 0.00 0.00 0.00 47 1023.7
20260831093325 16 40 0.0 0.0 0.00 0.00 0.00 47 1023.6
20260831091812 16 40 0.0 0.0 0.00 0.00 0.00 46 1023.6
20260831090313 16 32 0.0 0.0 0.00 0.00 0.00 46 1023.3
20260831084842 16 267 0.0 0.0 0.00 0.00 0.00 48 1023.2
20260831083337 16 30 0.0 0.0 0.00 0.00 0.00 50 1023.3
20260831081817 16 31 0.0 0.0 0.00 0.00 0.00 50 1023.4